147  
SXUS52 KJAX 181913  
OSOJAX  
OTHER SURFACE OBSERVATIONS  
NATIONAL WEATHER SERVICE JACKSONVILLE FL  
300 PM EDT WED SEP 18 2019  
 
FLZ020>025-030>033-035>038-040-182000-   
..FLORIDA
 
 
 
CITY SKY/WX TMP DP RH WIND PRES REMARKS  
CECIL FIELD SUNNY 90 70 51 E14 30.01S  
HERLONG FIELD NOT AVBL  
FERNANDINA BCH NOT AVBL  
LAKE CITY MOCLDY 90 70 51 E7 29.97F  
JUNIPER SPGS NOT AVBL  
BUNNELL NOT AVBL  
KEYSTONE HGTS PTCLDY 86 72 62 E10 29.99S  

 
 
GAZ132>136-149>154-162>166-182000-   
..GEORGIA
 
 
 
CITY SKY/WX TMP DP RH WIND PRES REMARKS  
JESUP CLOUDY 84 70 61 E13 30.03F  
HOMERVILLE FAIR 88 70 55 E10G20 29.99S  
SWAINSBORO CLOUDY 82 68 61 E14 30.07S  
CORDELE NOT AVBL  
EASTMAN MOCLDY 92 72 51 SE8 30.03F  

 
 
PLEASE NOTE: THESE OBSERVATIONS ARE NOT QUALITY CONTROLLED AND MAY  
NOT BE AVAILABLE AT ALL TIMES.  

 
 
 
CLICK HERE TO GO TO PREVIOUS BULLETINS.

The Nexlab FL Page
The Nexlab GA Page Main Text Page